Date String (YYYY-MM-DD hh:mm:ss) UTC,Instrument flags,absolute air pressure of the measurement (hPa),sample flow rate (lpm),inlet stack bypass flow (lpm),air temperature of the measurement (°C),ambient temperature measured by the external sensor (°C),aerosol sample conditioner tube jacket temperature (°C),OPC LED temperature (°C),internal box temperature (°C),relative humidity of the measurement (%),span deviation,mass concentration of particles derived from Lorenz-Mie calculation of OPC scattering (μg/m³),mass concentration of particles derived from Lorenz-Mie calculation of OPC scattering (μg/m³),mass concentration of particles derived from Lorenz-Mie calculation of OPC scattering (μg/m³)
DateTimeUTC,F1_M11,P_M11,Q1_M11,Q2_M11,T1_M11,T2_M11,T3_M11,T4_M11,T5_M11,U1_M11,ZSPAN_M11,X0_M11,X2_M11,X1_M11
2023-08-03 13:00:00,SystemResetWarning,0833.3,4.99,000.00,030.1,028.6,000.0,038.6,031.5,32.8,0000.0,0007.45,0004.08,0003.71
2023-08-03 13:01:00,SystemResetWarning,0833.3,4.99,000.00,030.1,028.6,000.0,038.6,031.5,33.0,0000.0,0007.42,0004.06,0003.70
2023-08-03 13:02:00,SystemResetWarning,0833.4,5.00,000.00,030.2,028.6,000.0,038.6,031.6,33.0,0000.0,0007.35,0004.02,0003.69
2023-08-03 13:03:00,SystemResetWarning,0833.3,4.99,000.00,030.2,027.4,000.0,038.5,031.4,32.5,0000.0,0007.39,0004.03,0003.68
2023-08-03 13:04:00,SystemResetWarning,0833.2,5.00,000.00,030.1,025.8,000.0,038.3,031.2,32.5,0000.0,0007.06,0004.02,0003.67
2023-08-03 13:05:00,SystemResetWarning,0833.2,5.00,000.00,030.0,025.2,000.0,038.2,031.0,33.0,0000.0,0006.83,0003.99,0003.66
2023-08-03 13:06:00,SystemResetWarning,0833.2,5.01,000.00,029.8,025.4,000.0,038.3,030.7,33.5,0000.0,0006.59,0003.94,0003.64
2023-08-03 13:07:00,SystemResetWarning,0833.2,5.00,000.00,029.7,025.8,000.0,038.3,030.8,34.0,0000.0,0006.38,0003.91,0003.61
2023-08-03 13:08:00,SystemResetWarning,0833.3,5.00,000.00,029.7,026.2,000.0,038.3,030.8,33.9,0000.0,0005.95,0003.90,0003.58
2023-08-03 13:09:00,SystemResetWarning,0833.3,5.00,000.00,029.7,026.6,000.0,038.3,030.9,34.3,0000.0,0007.01,0003.89,0003.56
2023-08-03 13:10:00,SystemResetWarning,0833.3,5.00,000.00,029.7,026.9,000.0,038.3,030.9,34.6,0000.0,0007.03,0003.86,0003.55
2023-08-03 13:11:00,SystemResetWarning,0833.3,5.02,000.00,029.7,027.2,000.0,038.3,031.0,35.0,0000.0,0006.96,0003.83,0003.53
2023-08-03 13:12:00,SystemResetWarning,0833.3,4.98,000.00,029.8,027.4,000.0,038.2,031.1,34.6,0000.0,0007.45,0003.82,0003.52
2023-08-03 13:13:00,SystemResetWarning,0833.3,5.01,000.00,029.9,027.6,000.0,038.2,031.2,33.9,0000.0,0007.65,0003.83,0003.50
2023-08-03 13:14:00,SystemResetWarning,0833.4,5.01,000.00,029.9,027.8,000.0,038.2,031.2,33.6,0000.0,0007.67,0003.80,0003.48
2023-08-03 13:15:00,SystemResetWarning,0833.4,5.00,000.00,030.0,028.0,000.0,038.3,031.2,33.5,0000.0,0007.99,0003.80,0003.46
2023-08-03 13:16:00,SystemResetWarning,0833.4,4.99,000.00,030.0,028.1,000.0,038.3,031.3,33.4,0000.0,0008.01,0003.80,0003.44
2023-08-03 13:17:00,SystemResetWarning,0833.5,4.99,000.00,030.0,028.2,000.0,038.3,031.3,33.2,0000.0,0008.02,0003.81,0003.44
2023-08-03 13:18:00,SystemResetWarning,0833.4,5.00,000.00,030.1,028.3,000.0,038.3,031.3,32.8,0000.0,0008.13,0003.78,0003.42
2023-08-03 13:19:00,SystemResetWarning,0833.4,5.00,000.00,030.1,028.3,000.0,038.4,031.3,32.4,0000.0,0008.13,0003.75,0003.42
2023-08-03 13:20:00,SystemResetWarning,0833.4,5.01,000.00,030.1,028.4,000.0,038.4,031.4,32.5,0000.0,0007.51,0003.73,0003.40
2023-08-03 13:21:00,SystemResetWarning,0833.4,5.01,000.00,030.1,028.5,000.0,038.4,031.4,33.6,0000.0,0007.41,0003.70,0003.39
2023-08-03 13:22:00,SystemResetWarning,0833.3,5.01,000.00,030.1,028.5,000.0,038.4,031.4,34.2,0000.0,0007.42,0003.70,0003.39
2023-08-03 13:23:00,SystemResetWarning,0833.3,5.00,000.00,030.1,028.6,000.0,038.5,031.5,34.3,0000.0,0006.81,0003.68,0003.38
2023-08-03 13:24:00,SystemResetWarning,0833.2,4.97,000.00,030.2,028.6,000.0,038.5,031.5,35.6,0000.0,0006.41,0003.64,0003.36
2023-08-03 13:25:00,SystemResetWarning,0833.2,5.04,000.00,030.3,028.7,000.0,038.5,031.6,34.8,0000.0,0006.36,0003.63,0003.35
2023-08-03 13:26:00,SystemResetWarning,0833.3,4.97,000.00,030.5,028.7,000.0,038.5,031.7,34.4,0000.0,0006.13,0003.61,0003.35
2023-08-03 13:27:00,SystemResetWarning,0833.2,5.00,000.00,030.6,027.5,000.0,038.4,031.6,34.2,0000.0,0006.42,0003.56,0003.34
2023-08-03 13:28:00,SystemResetWarning,0833.2,5.00,000.00,030.6,025.9,000.0,038.4,031.3,35.3,0000.0,0006.33,0003.54,0003.32
2023-08-03 13:29:00,SystemResetWarning,0833.2,5.03,000.00,030.7,025.3,000.0,038.3,031.2,35.6,0000.0,0006.17,0003.55,0003.33
2023-08-03 13:30:00,SystemResetWarning,0833.2,4.98,000.00,030.8,025.5,000.0,038.4,031.1,35.8,0000.0,0005.96,0003.58,0003.32
2023-08-03 13:31:00,SystemResetWarning,0833.2,5.01,000.00,031.0,025.9,000.0,038.5,031.2,34.2,0000.0,0005.99,0003.59,0003.32
2023-08-03 13:32:00,SystemResetWarning,0833.2,4.98,000.00,031.2,026.3,000.0,038.5,031.3,34.5,0000.0,0005.93,0003.57,0003.31
2023-08-03 13:33:00,SystemResetWarning,0833.2,4.99,000.00,031.3,026.7,000.0,038.6,031.3,34.8,0000.0,0005.84,0003.55,0003.29
2023-08-03 13:34:00,SystemResetWarning,0833.2,5.04,000.00,031.4,027.0,000.0,038.7,031.4,34.4,0000.0,0006.02,0003.60,0003.30
2023-08-03 13:35:00,SystemResetWarning,0833.2,4.97,000.00,031.4,027.3,000.0,038.8,031.4,34.1,0000.0,0006.14,0003.62,0003.30
2023-08-03 13:36:00,SystemResetWarning,0833.2,5.01,000.00,031.5,027.6,000.0,038.9,031.4,34.0,0000.0,0006.07,0003.60,0003.29
2023-08-03 13:37:00,SystemResetWarning,0833.2,5.01,000.00,031.5,027.8,000.0,039.0,031.5,34.0,0000.0,0005.61,0003.61,0003.28
2023-08-03 13:38:00,SystemResetWarning,0833.2,5.00,000.00,031.5,028.0,000.0,039.1,031.5,34.0,0000.0,0005.36,0003.64,0003.27
2023-08-03 13:39:00,SystemResetWarning,0833.2,5.00,000.00,031.5,028.1,000.0,039.1,031.6,34.1,0000.0,0005.46,0003.66,0003.27
2023-08-03 13:40:00,SystemResetWarning,0833.2,5.00,000.00,031.5,028.2,000.0,039.2,031.6,34.3,0000.0,0005.31,0003.64,0003.26
2023-08-03 13:41:00,SystemResetWarning,0833.2,4.99,000.00,031.5,028.3,000.0,039.2,031.7,34.0,0000.0,0005.18,0003.60,0003.26
2023-08-03 13:42:00,SystemResetWarning,0833.3,4.99,000.00,031.5,028.4,000.0,039.3,031.7,33.6,0000.0,0005.19,0003.61,0003.27
2023-08-03 13:43:00,SystemResetWarning,0833.2,5.01,000.00,031.5,028.5,000.0,039.3,031.8,33.4,0000.0,0005.52,0003.66,0003.30
2023-08-03 13:44:00,SystemResetWarning,0833.2,5.01,000.00,031.5,028.6,000.0,039.4,031.7,32.4,0000.0,0005.89,0003.72,0003.33
2023-08-03 13:45:00,SystemResetWarning,0833.2,5.01,000.00,031.5,028.6,000.0,039.4,031.8,31.3,0000.0,0005.90,0003.74,0003.37
2023-08-03 13:46:00,SystemResetWarning,0833.2,4.99,000.00,031.5,028.5,000.0,039.4,031.9,31.6,0000.0,0005.88,0003.76,0003.39
2023-08-03 13:47:00,SystemResetWarning,0833.2,4.99,000.00,031.5,027.1,000.0,039.3,031.8,31.9,0000.0,0006.05,0003.82,0003.42
2023-08-03 13:48:00,SystemResetWarning,0833.2,5.00,000.00,031.4,025.8,000.0,039.2,031.5,32.1,0000.0,0006.36,0003.88,0003.46
2023-08-03 13:49:00,SystemResetWarning,0833.2,5.00,000.00,031.3,025.5,000.0,039.1,031.3,31.7,0000.0,0006.29,0003.90,0003.50
2023-08-03 13:50:00,SystemResetWarning,0833.2,5.01,000.00,031.1,025.8,000.0,039.2,031.1,31.8,0000.0,0006.17,0003.90,0003.54
2023-08-03 13:51:00,SystemResetWarning,0833.2,5.00,000.00,031.0,026.2,000.0,039.2,031.1,33.5,0000.0,0006.34,0003.95,0003.57
2023-08-03 13:52:00,SystemResetWarning,0833.2,4.99,000.00,030.9,026.6,000.0,039.2,031.2,33.8,0000.0,0006.50,0004.00,0003.60
2023-08-03 13:53:00,SystemResetWarning,0833.3,5.00,000.00,030.8,026.9,000.0,039.2,031.3,33.3,0000.0,0006.98,0004.05,0003.63
2023-08-03 13:54:00,SystemResetWarning,0833.2,5.01,000.00,030.8,027.2,000.0,039.2,031.3,33.1,0000.0,0007.55,0004.05,0003.64
2023-08-03 13:55:00,SystemResetWarning,0833.3,5.00,000.00,030.8,027.5,000.0,039.1,031.4,33.1,0000.0,0007.53,0004.07,0003.65
2023-08-03 13:56:00,SystemResetWarning,0833.4,4.99,000.00,030.8,027.7,000.0,039.1,031.4,32.4,0000.0,0007.72,0004.09,0003.65
2023-08-03 13:57:00,SystemResetWarning,0833.4,5.00,000.00,030.7,027.9,000.0,039.1,031.5,32.9,0000.0,0007.79,0004.09,0003.65
2023-08-03 13:58:00,SystemResetWarning,0833.4,4.99,000.00,030.7,028.1,000.0,039.1,031.5,35.2,0000.0,0007.82,0004.09,0003.65
2023-08-03 13:59:00,SystemResetWarning,0833.4,5.02,000.00,030.8,028.2,000.0,039.1,031.6,36.4,0000.0,0007.76,0004.09,0003.65
